Starlink 11129

operational
NORAD ID: 60038 Int'l Des: 2024-112 Owner: SPXS Country: US Constellation: starlink
LEOCIRCULAR

Über Starlink 11129

Beschreibung wird geladen...

Live-Position

3D-Globus wird geladen...

Nächste Überflüge

Höhenverlauf

Altitude vs Time

uPlot chart will show altitude changes over time

Zweizeiliger Elementsatz

1 60038U 24112A 25307.98805022 .00000024 00000-0 50536-5 0 9998
2 60038 53.1591 166.2655 0001022 82.2477 277.8657 15.69708358 81237
Epoch: 3. Nov. 2025 • Age: 11 hours

Aktueller Status

Höhe 359.6 km
Geschwindigkeit 7.70 km/s
Subsatellitenpunkt 14.39°N, 26.14°W
Startdatum 8. Juni 2024
Alter 1.4 years
Typ internet

Technische Details

Klassifizierung Payload
Masse 960.00 kg
Trockenmasse 910.00 kg
Gesamtmasse 960.00 kg
Länge 0.30 m
Durchmesser 4.10 m
Spannweite 29.00 m
Form Box + pan
Hersteller SPXS
Bus-Typ Starlink V2MD
Phasenstatus In Orbit
Besitzer/Staat SPXS/US

Große Konstellationen

Loading constellations...